[[{"header":{"parameterUnit":"m.s-1","parameterCategory":1,"la1":30.2991,"la2":30.254,"lo1":-89.0895,"lo2":-89.0444,"dy":0.0017,"dx":0.0017,"nx":28,"ny":28,"refTime":"2024-04-08T09:00:00:Z","depth":0,"parameterNumber":2,"parameterNumberName":"U-component_of_WINDS"},"data":[0,0,0,0,0,0,0,0,0,0,0,0,0,0,0,0,0,0,0,0,0,0,0,0,0,0,0,0,0,0,0,0,0,0,0,0,0,0,0,0,0,0,0,0,0,0,0,0,0,0,0,0,0,0,0,0,0,0,-6.6858,-6.6859,0,-6.6943,-6.6944,-6.6945,-6.6899,-6.6897,-6.6895,-6.6893,-6.6974,-6.6978,-6.6982,0,0,0,0,0,0,0,0,0,0,0,0,0,-6.6652,-6.6656,-6.6858,-6.6859,-6.686,-6.6943,-6.6944,-6.6945,-6.69,-6.6897,-6.6894,-6.6892,-6.6972,-6.6977,-6.6983,0,0,0,0,0,0,0,0,0,0,0,0,0,-6.6739,-6.6657,-6.6858,-6.6848,-6.6848,-6.6943,-6.6944,-6.6946,-6.69,-6.6897,-6.6893,-6.689,-6.6971,-6.6977,-6.6983,-6.7092,0,0,-6.7003,-6.7006,0,0,0,0,0,0,0,0,-6.6734,-6.6747,-6.6848,-6.6849,-6.6849,-6.6907,-6.6901,-6.6994,-6.6901,-6.688,-6.6893,-6.6889,-6.6954,-6.6962,-6.6985,-6.7095,-6.7099,-6.7004,-6.7007,-6.701,-6.7012,0,0,0,0,0,0,0,-6.6728,-6.6743,-6.6892,-6.685,-6.685,-6.6837,-6.6846,-6.6919,-6.6935,-6.6882,-6.6879,-6.689,-6.6953,-6.6979,-6.6986,-6.71,-6.7003,-6.7009,-6.7013,-6.7016,-6.7302,-6.7306,0,0,0,0,0,0,-6.6724,-6.6738,-6.6889,-6.6894,-6.6782,-6.6844,-6.6853,-6.6892,-6.6934,-6.6938,-6.6892,-6.6887,-6.697,-6.6979,-6.6989,-6.7116,-6.701,-6.7016,-6.702,-6.7299,-6.7303,-6.7307,0,0,0,0,0,0,-6.6719,-6.6738,-6.6885,-6.6816,-6.6833,-6.6851,-6.6894,-6.6895,-6.692,-6.6942,-6.6945,-6.6916,-6.6967,-6.698,-6.7067,-6.7119,-6.7019,-6.7025,-6.7294,-6.73,-6.7305,-6.7374,0,0,0,0,0,0,-6.6714,-6.6736,-6.6779,-6.6817,-6.6837,-6.6963,-6.6898,-6.6899,-6.6932,-6.6926,-6.6965,-6.6968,-6.6965,-6.7057,-6.7073,-6.7126,-6.703,-6.7289,-6.7297,-6.7303,-6.7367,-6.7381,-6.7393,0,0,0,0,0,-6.6706,-6.6793,-6.6781,-6.6799,-6.6891,-6.6966,-6.6978,-6.6975,-6.6937,-6.6978,-6.6993,-6.6966,-6.7112,-6.7066,-6.7084,-6.7139,-6.7286,-6.7295,-6.7303,-6.7361,-6.7378,-6.7393,0,0,0,0,0,0,-6.6758,-6.6798,-6.6785,-6.6887,-6.6924,-6.6958,-6.701,-6.6994,-6.704,-6.7032,-6.7026,-6.7035,-6.7124,-6.7141,-6.709,-6.7246,-6.7193,-6.7205,-6.7231,-6.7247,-6.726,-6.7252,-6.7035,0,0,0,0,0,-6.6782,-6.6842,-6.6873,-6.696,-6.698,-6.6993,-6.7025,-6.702,-6.7057,-6.7072,-6.7092,-6.7127,-6.7181,-6.7216,-6.7266,-6.7371,-6.7377,-6.7418,-6.7431,-6.7442,-6.7451,-6.7505,-6.7522,-6.7335,-6.7335,-6.7335,0,0,-6.6831,-6.686,-6.6898,-6.6971,-6.6999,-6.7059,-6.7005,-6.7071,-6.7114,-6.7081,-6.7163,-6.718,-6.7219,-6.7315,-6.7358,-6.7331,-6.7505,-6.7452,-6.7461,-6.7464,-6.7515,-6.7533,-6.7549,-6.7341,-6.734,-6.7339,0,0,-6.6949,-6.6979,-6.7054,-6.7084,-6.7128,-6.7136,-6.7154,-6.7192,-6.7202,-6.7286,-6.7262,-6.7313,-6.7406,-6.7434,-6.7461,-6.7593,-6.7569,-6.761,-6.7676,-6.7729,-6.7744,-6.7757,-6.78,-6.7817,-6.762,-6.762,-6.762,0,-6.7003,-6.7094,-6.7094,-6.7162,-6.7194,-6.717,-6.7244,-6.7273,-6.733,-6.7352,-6.7323,-6.7439,-6.7464,-6.7564,-6.7597,-6.762,-6.7639,-6.7602,-6.7742,-6.7755,-6.7767,-6.7809,-6.7826,-6.7624,-6.7624,-6.7623,-6.7623,0,-6.7156,-6.722,-6.7275,-6.7333,-6.7372,-6.7443,-6.7452,-6.7492,-6.7485,-6.7496,-6.758,-6.761,-6.7665,-6.769,-6.7683,-6.7789,-6.7771,-6.7743,-6.7688,-6.779,-6.7828,-6.7844,-6.763,-6.7629,-6.7628,-6.7627,0,0,-6.7305,-6.7365,-6.7384,-6.741,-6.7458,-6.7506,-6.7576,-6.7632,-6.7664,-6.7706,-6.7762,-6.7843,-6.7817,-6.7847,-6.7844,-6.7891,-6.799,-6.7856,-6.7857,-6.7876,-6.8105,-6.8123,-6.8142,-6.7977,-6.798,-6.7982,-6.8101,0,-6.7423,-6.7546,-6.755,-6.7661,-6.7718,-6.7698,-6.7759,-6.7794,-6.7807,-6.7856,-6.787,-6.7925,-6.7889,-6.7907,-6.7953,-6.7968,-6.8035,-6.796,-6.8025,-6.8028,-6.8011,-6.8162,-6.8181,-6.8291,-6.8116,-6.8119,-6.8121,0,-6.7576,-6.7624,-6.7742,-6.7782,-6.7806,-6.7861,-6.7912,-6.7961,-6.8,-6.8006,-6.8042,-6.8032,-6.8101,-6.8049,-6.8142,-6.8091,-6.8119,-6.8131,-6.8135,-6.8137,-6.8077,-6.8164,-6.8327,-6.8341,-6.8145,-6.8143,-6.8142,0,-6.7668,-6.7763,-6.7845,-6.7868,-6.7918,-6.7956,-6.7978,-6.8014,-6.8048,-6.8093,-6.8114,-6.8167,-6.8195,-6.8235,-6.8239,-6.8201,-6.8332,-6.8281,-6.8336,-6.8336,-6.836,-6.8358,-6.8525,-6.8387,-6.8386,-6.8386,-6.8386,0,-6.7797,-6.7868,-6.7887,-6.7937,-6.8016,-6.802,-6.8098,-6.8117,-6.815,-6.8202,-6.8189,-6.8237,-6.8242,-6.8292,-6.8296,-6.8371,-6.8385,-6.839,-6.8389,-6.8388,-6.8387,-6.8402,-6.8393,-6.839,-6.8389,-6.8388,-6.8388,0,-6.791,-6.7926,-6.8013,-6.8054,-6.8066,-6.8123,-6.8157,-6.8204,-6.8217,-6.8283,-6.8299,-6.8319,-6.8377,-6.8386,-6.8454,-6.8457,-6.8546,-6.854,-6.8533,-6.853,-6.8584,-6.8577,-6.8762,-6.8786,-6.8636,-6.8638,-6.8639,0,-6.7988,-6.8044,-6.8091,-6.8126,-6.8151,-6.8207,-6.8242,-6.8249,-6.8285,-6.8335,-6.8375,-6.8433,-6.8478,-6.8572,-6.8591,-6.8643,-6.8635,-6.8697,-6.8642,-6.864,-6.8631,-6.8626,-6.863,-6.8706,-6.8707,-6.8709,-6.871,0,-6.8125,-6.8131,-6.8182,-6.8238,-6.828,-6.8323,-6.8364,-6.8393,-6.8405,-6.8446,-6.8507,-6.8543,-6.8613,-6.8669,-6.8721,-6.8742,-6.8727,-6.8728,-6.8742,-6.8739,-6.8732,-6.8733,-6.8556,-6.8722,-6.8721,-6.872,-6.8719,-6.8719,-6.822,-6.8268,-6.8309,-6.8367,-6.8399,-6.8438,-6.8484,-6.8504,-6.8555,-6.8614,-6.8615,-6.8681,-6.8719,-6.8787,-6.8812,-6.8862,-6.8841,-6.8864,-6.8869,-6.8873,-6.8876,-6.8729,-6.8872,-6.8872,-6.8871,-6.8871,-6.8871,0,-6.8353,-6.8379,-6.8433,-6.8491,-6.8537,-6.8523,-6.8568,-6.8606,-6.8664,-6.8702,-6.8748,-6.8817,-6.8872,-6.8897,-6.8951,-6.8986,-6.898,-6.8999,-6.8994,-6.8998,-6.8893,-6.8873,-6.9003,-6.9003,-6.9003,-6.9003,-6.9003,-6.9003,-6.8426,-6.8505,-6.8516,-6.861,-6.8636,-6.8701,-6.8727,-6.8762,-6.8793,-6.8871,-6.8917,-6.8934,-6.8967,-6.9023,-6.9072,-6.9078,-6.9096,-6.9118,-6.912,-6.902,-6.9006,-6.8993,-6.8974,-6.9123,-6.9123,-6.9221,-6.9222,-6.9222]},{"header":{"parameterUnit":"m.s-1","parameterCategory":1,"la1":30.2991,"la2":30.254,"lo1":-89.0895,"lo2":-89.0444,"dy":0.0017,"dx":0.0017,"nx":28,"ny":28,"refTime":"2024-04-08T09:00:00:Z","depth":0,"parameterNumber":3,"parameterNumberName":"V-component_of_WINDS"},"data":[0,0,0,0,0,0,0,0,0,0,0,0,0,0,0,0,0,0,0,0,0,0,0,0,0,0,0,0,0,0,0,0,0,0,0,0,0,0,0,0,0,0,0,0,0,0,0,0,0,0,0,0,0,0,0,0,0,0,3.3,3.3001,0,3.3092,3.3093,3.3095,3.3098,3.3097,3.3096,3.3095,3.3191,3.3194,3.3198,0,0,0,0,0,0,0,0,0,0,0,0,0,3.2828,3.2831,3.3,3.3001,3.3002,3.3092,3.3094,3.3095,3.3099,3.3097,3.3096,3.3095,3.319,3.3194,3.3198,0,0,0,0,0,0,0,0,0,0,0,0,0,3.291,3.2832,3.2999,3.3015,3.3017,3.3092,3.3094,3.3095,3.3099,3.3097,3.3096,3.3094,3.3188,3.3194,3.3199,3.3265,0,0,3.3215,3.3218,0,0,0,0,0,0,0,0,3.2905,3.2916,3.3011,3.3014,3.3016,3.3082,3.3068,3.3152,3.3099,3.3068,3.3095,3.3093,3.3156,3.3164,3.3185,3.327,3.3274,3.3216,3.3219,3.3221,3.3223,0,0,0,0,0,0,0,3.29,3.2912,3.3036,3.3013,3.3016,3.3018,3.3027,3.3084,3.312,3.307,3.3071,3.3082,3.3157,3.318,3.3187,3.3275,3.3216,3.322,3.3224,3.3226,3.3421,3.3423,0,0,0,0,0,0,3.2891,3.2907,3.3033,3.3039,3.2956,3.3022,3.3033,3.3063,3.312,3.3127,3.3083,3.3082,3.3172,3.3181,3.3191,3.3274,3.3221,3.3226,3.3229,3.3419,3.3422,3.3424,0,0,0,0,0,0,3.2887,3.2902,3.303,3.2974,3.299,3.3027,3.306,3.3065,3.3088,3.3129,3.3136,3.31,3.3171,3.3183,3.3247,3.3277,3.3229,3.3234,3.3417,3.342,3.3423,3.3439,0,0,0,0,0,0,3.2882,3.2901,3.2925,3.2974,3.2993,3.3084,3.3062,3.3068,3.3097,3.3096,3.3146,3.3153,3.317,3.3239,3.3253,3.3284,3.3238,3.3415,3.3419,3.3422,3.3436,3.3442,3.3448,0,0,0,0,0,3.2876,3.2926,3.2927,3.2942,3.3025,3.3085,3.3096,3.3115,3.31,3.3126,3.3152,3.3151,3.3272,3.3246,3.3261,3.3294,3.3413,3.3417,3.3422,3.3434,3.3441,3.3448,0,0,0,0,0,0,3.288,3.2933,3.2934,3.3001,3.3039,3.3086,3.3119,3.3122,3.3165,3.3162,3.3184,3.3195,3.3259,3.3283,3.3253,3.3362,3.3341,3.3348,3.3344,3.3352,3.3358,3.3351,3.3242,0,0,0,0,0,3.2888,3.2933,3.2977,3.3032,3.3051,3.3082,3.3109,3.312,3.316,3.3176,3.3207,3.3247,3.3294,3.3324,3.3369,3.344,3.3452,3.347,3.3476,3.348,3.3487,3.3528,3.3537,3.3439,3.3439,3.3438,0,0,3.2907,3.2941,3.2968,3.3033,3.3064,3.3111,3.3095,3.3144,3.318,3.3184,3.3246,3.3271,3.3316,3.3384,3.3416,3.3406,3.3517,3.3486,3.3489,3.3494,3.3534,3.3543,3.3551,3.3442,3.3441,3.3441,0,0,3.2964,3.2994,3.3044,3.3075,3.3122,3.3142,3.3155,3.3202,3.3219,3.3282,3.3287,3.3329,3.3409,3.3442,3.3469,3.3541,3.3542,3.3555,3.3585,3.3625,3.3633,3.364,3.3667,3.3676,3.3561,3.3561,3.3561,0,3.2981,3.3051,3.3069,3.3119,3.3149,3.3155,3.3207,3.3237,3.3296,3.3317,3.3305,3.3406,3.3437,3.3514,3.3532,3.3553,3.3569,3.3549,3.363,3.3637,3.3644,3.367,3.368,3.3563,3.3562,3.3562,3.3562,0,3.307,3.3119,3.3154,3.3211,3.3244,3.3295,3.3322,3.3354,3.3363,3.3385,3.3451,3.3488,3.3542,3.3561,3.357,3.364,3.3633,3.3625,3.3604,3.3654,3.368,3.369,3.3564,3.3564,3.3564,3.3563,0,0,3.3132,3.32,3.3213,3.324,3.3293,3.3331,3.3382,3.3435,3.3463,3.3504,3.3549,3.3617,3.3611,3.3642,3.3655,3.3689,3.3746,3.3678,3.3679,3.369,3.3828,3.3834,3.3845,3.3747,3.3749,3.3751,3.3825,0,3.3196,3.3288,3.3307,3.3386,3.3433,3.344,3.3485,3.3523,3.3546,3.3589,3.3614,3.3663,3.365,3.3669,3.3704,3.3732,3.3774,3.3727,3.3791,3.3793,3.378,3.3858,3.3864,3.3932,3.3834,3.3836,3.3837,0,3.3283,3.3327,3.3411,3.346,3.348,3.352,3.3571,3.3611,3.3655,3.3669,3.3705,3.3714,3.377,3.3746,3.3823,3.379,3.3818,3.3836,3.3839,3.3846,3.3818,3.3869,3.3954,3.3964,3.3853,3.3851,3.385,0,3.3322,3.3402,3.3463,3.3485,3.3543,3.3572,3.3597,3.3639,3.367,3.3715,3.3736,3.3786,3.3814,3.3854,3.3877,3.3857,3.3954,3.3931,3.3968,3.3968,3.3989,3.3987,3.408,3.4005,3.4004,3.4004,3.4004,0,3.3392,3.3444,3.3481,3.3519,3.3578,3.36,3.3658,3.3683,3.3721,3.3764,3.3774,3.3815,3.3843,3.3888,3.3907,3.3969,3.3982,3.3996,3.4,3.3995,3.3994,3.4014,3.4011,3.4007,3.4006,3.4006,3.4005,0,3.3446,3.3472,3.354,3.3589,3.3603,3.3644,3.3687,3.3725,3.3748,3.3803,3.3817,3.3854,3.3908,3.3935,3.4002,3.4015,3.4086,3.4087,3.4071,3.4073,3.411,3.4106,3.422,3.4237,3.4148,3.4149,3.415,0,3.3489,3.3529,3.3583,3.3613,3.3639,3.3687,3.3719,3.3743,3.3776,3.383,3.3862,3.3916,3.3961,3.4048,3.4081,3.4133,3.4136,3.4172,3.4144,3.4139,3.4139,3.4136,3.4141,3.4178,3.4178,3.4179,3.418,0,3.3565,3.3577,3.3622,3.3673,3.3711,3.3753,3.3793,3.3817,3.3848,3.3885,3.3941,3.3975,3.4045,3.4099,3.4154,3.4181,3.4187,3.4188,3.42,3.4196,3.4186,3.4194,3.4086,3.4186,3.4185,3.4185,3.4184,3.4184,3.3616,3.3653,3.3697,3.3748,3.3781,3.3819,3.3858,3.3886,3.3932,3.399,3.4002,3.4061,3.4106,3.418,3.4209,3.4256,3.4249,3.4265,3.4269,3.4273,3.4276,3.4178,3.4266,3.4266,3.4266,3.4266,3.4266,0,3.3694,3.3722,3.3769,3.3826,3.3867,3.3868,3.3913,3.3947,3.3999,3.404,3.4085,3.4149,3.4203,3.424,3.4295,3.4326,3.433,3.434,3.4338,3.4345,3.4279,3.4264,3.4336,3.4336,3.4336,3.4336,3.4336,3.4336,3.3739,3.3801,3.3819,3.3898,3.3927,3.3985,3.4011,3.4047,3.408,3.4152,3.4197,3.4221,3.4261,3.4319,3.4369,3.4378,3.4399,3.4409,3.4419,3.4357,3.4349,3.4342,3.4329,3.4413,3.4413,3.4481,3.4482,3.4482]}]]